PST,Max TemperatureF,Mean TemperatureF,Min TemperatureF,Max Dew PointF,MeanDew PointF,Min DewpointF,Max Humidity, Mean Humidity, Min Humidity, Max Sea Level PressureIn, Mean Sea Level PressureIn, Min Sea Level PressureIn, Max VisibilityMiles, Mean VisibilityMiles, Min VisibilityMiles, Max Wind SpeedMPH, Mean Wind SpeedMPH, Max Gust SpeedMPH,PrecipitationIn, CloudCover, Events, WindDirDegrees
2013-12-1,67,56,44,44,41,38,83,62,40,30.35,30.27,30.23,8,6,5,8,3,9,0.00,0,,113
2013-12-2,68,56,43,43,40,38,83,59,34,30.22,30.06,29.91,8,6,5,8,2,11,0.00,0,,69
2013-12-3,66,54,41,48,41,32,83,67,51,29.92,29.83,29.73,10,7,3,26,8,31,T,5,Rain,351
2013-12-4,52,42,31,31,25,20,76,52,28,30.07,30.01,29.90,10,10,10,10,4,14,0.00,0,,356
2013-12-5,49,39,29,24,21,17,72,52,31,30.18,30.13,30.05,10,10,10,8,3,14,0.00,0,,106
2013-12-6,51,39,27,23,20,18,81,55,28,30.22,30.17,30.12,10,10,8,9,3,12,0.00,0,,99
2013-12-7,51,43,35,41,29,19,89,63,37,30.20,30.08,29.95,10,10,4,20,8,24,0.10,6,Rain,344
2013-12-8,45,38,30,29,27,25,85,67,49,30.31,30.25,30.20,10,10,7,8,2,10,0.00,0,,108
2013-12-9,49,38,26,29,26,24,92,67,42,30.43,30.38,30.30,10,8,6,9,4,12,0.00,0,,46
2013-12-10,51,39,26,28,26,21,85,62,39,30.41,30.31,30.23,10,7,5,9,3,10,0.00,0,,62
2013-12-11,59,45,31,31,28,25,82,56,30,30.26,30.22,30.19,8,6,4,13,4,15,0.00,0,,17
2013-12-12,59,45,31,31,29,26,78,54,30,30.27,30.22,30.17,6,5,3,9,3,10,0.00,0,,62
2013-12-13,57,45,33,32,30,28,82,58,33,30.33,30.27,30.20,6,4,3,9,2,9,0.00,0,,88
2013-12-14,63,48,33,34,31,27,76,54,32,30.40,30.36,30.31,5,4,3,9,4,12,0.00,0,,104
2013-12-15,60,47,33,35,33,28,82,61,40,30.38,30.32,30.25,4,3,2,8,2,10,0.00,0,,126
2013-12-16,60,49,37,37,35,32,82,61,39,30.26,30.22,30.17,3,3,2,9,3,10,0.00,0,,67
2013-12-17,69,54,39,40,38,34,79,57,35,30.19,30.12,30.03,3,2,2,10,3,12,0.00,0,,307
2013-12-18,62,55,47,42,41,39,77,60,43,30.04,29.89,29.73,3,2,2,12,5,14,0.00,1,,167
2013-12-19,56,49,42,41,39,37,82,67,51,29.91,29.77,29.71,10,5,2,14,5,17,T,6,,10
2013-12-20,53,46,39,40,28,21,76,52,28,30.02,29.97,29.90,10,10,6,8,3,10,0.00,4,,74
2013-12-21,61,48,34,34,30,27,76,54,32,30.10,30.02,29.98,10,10,7,9,3,11,0.00,0,,34
2013-12-22,63,49,35,33,31,28,76,53,30,30.32,30.22,30.11,10,9,7,9,3,12,0.00,0,,96
2013-12-23,66,51,36,35,33,30,76,53,29,30.40,30.34,30.30,8,6,5,8,2,11,0.00,0,,49
2013-12-24,64,51,37,37,35,32,79,57,34,30.35,30.29,30.22,5,4,4,8,3,10,0.00,0,,91
2013-12-25,71,53,35,38,35,31,82,54,26,30.29,30.26,30.20,8,4,2,9,3,11,0.00,0,,18
2013-12-26,66,51,35,38,34,29,76,54,31,30.30,30.24,30.18,6,4,3,8,2,10,0.00,0,,89
2013-12-27,66,52,38,38,35,31,79,56,32,30.25,30.19,30.11,5,4,2,9,4,14,0.00,0,,163
2013-12-28,60,48,36,39,36,32,76,60,44,30.13,30.09,30.04,5,3,2,10,4,12,0.00,0,,328
2013-12-29,67,52,36,37,33,27,79,51,22,30.19,30.15,30.11,6,4,2,9,3,11,0.00,0,,96
2013-12-30,71,54,36,36,30,25,65,41,17,30.24,30.22,30.19,7,5,3,12,4,13,0.00,0,,117
2013-12-31,64,50,36,30,27,24,59,41,23,30.26,30.20,30.15,10,6,4,8,2,12,0.00,0,,106